Location: Brno
(49.2000°N, 16.6330°E)
Time: 06:33:25
(UTC+02:00)

ATV-4 - Visible Passes

Search period start: 17 September 2024 00:00
Search period end: 27 September 2024 00:00
Orbit: 308 x 318 km, 51.6° (Epoch: 02 November)

Date Brightness Start Highest point End Pass type
(mag) Time Alt. Az. Time Alt. Az. Time Alt. Az.
17 Sep 6.4 03:03:45 10° WNW 04:25:55 64° WSW 04:47:42 10° SSE visible
17 Sep 7.6 18:35:10 10° S 19:52:15 66° ESE 21:05:41 10° ENE visible
17 Sep 7.0 23:14:28 10° WSW 01:02:11 86° N 01:39:26 10° ESE visible
18 Sep 6.3 04:37:16 10° NW 05:40:39 46° WSW 05:59:47 10° S visible
18 Sep 7.4 19:50:44 10° SSW 21:18:11 79° SE 22:25:02 10° ENE visible
19 Sep 6.7 00:45:20 10° W 02:27:45 88° SSW 02:55:28 10° ESE visible
19 Sep 6.3 06:10:30 10° NW 06:53:29 29° W 07:10:26 10° SW visible
19 Sep 7.3 21:10:30 10° SW 22:49:35 89° SSE 23:44:06 10° ENE visible
20 Sep 6.3 02:21:18 10° WNW 03:49:21 75° SW 04:11:05 10° SE visible
20 Sep 7.6 18:03:08 10° S 19:20:12 56° ESE 20:28:37 10° NE visible
20 Sep 7.1 22:35:28 10° WSW 00:22:27 86° N 01:02:56 10° E visible
21 Sep 6.1 03:58:48 10° WNW 05:07:58 58° WSW 05:26:12 10° SSE visible
21 Sep 7.5 19:18:44 10° SSW 20:45:04 71° SE 21:50:11 10° ENE visible
22 Sep 6.8 00:07:04 10° W 01:52:09 87° NNE 02:21:31 10° ESE visible
22 Sep 6.2 05:35:00 10° NW 06:24:21 39° WSW 06:40:27 10° SSW visible
22 Sep 7.3 20:38:53 10° SW 22:15:45 83° SE 23:11:24 10° ENE visible
23 Sep 6.4 01:45:26 10° W 03:17:43 84° SSW 03:39:48 10° SE visible
23 Sep 7.6 17:38:58 10° SSE 18:55:34 47° ESE 19:57:53 10° NE visible
23 Sep 7.1 22:04:18 10° SW 23:49:49 88° NNW 00:32:27 10° E visible
24 Sep 6.0 03:26:56 10° WNW 04:40:00 69° SW 04:57:41 10° SSE visible
24 Sep 7.5 18:54:08 10° S 20:20:06 63° ESE 21:21:43 10° ENE visible
24 Sep 6.9 23:36:32 10° WSW 01:22:35 86° N 01:53:23 10° E visible
25 Sep 5.9 05:06:47 10° NW 05:59:47 48° WSW 06:14:58 10° S visible
25 Sep 7.3 20:14:41 10° SSW 21:50:20 77° SE 22:45:01 10° ENE visible
26 Sep 6.4 01:16:41 10° W 02:51:38 90° SSW 03:14:08 10° ESE visible
26 Sep 7.6 17:22:48 10° SSE 18:37:27 40° E 19:33:19 10° NE visible
